Location: Shenandoah County Park
(38.9356°N, 78.4524°W)
Time: 06:09:52
(UTC-04:00)

Transit 2A - Pass Details

Date: 14 June 2024
Orbit: 591 x 960 km, 66.7° (Epoch: 23 July)

Event Time Altitude Azimuth Distance (km) Brightness Sun altitude
Rises 04:37:17 0° 317° (NW) 3,568 9.5 -11.7°
Reaches altitude 10° 04:40:15 10° 304° (NW) 2,656 8.7 -11.3°
Maximum altitude 04:45:03 24° 254° (WSW) 1,883 7.5 -10.6°
Drops below altitude 10° 04:49:54 10° 204° (SSW) 2,682 8.3 -9.9°
Enters shadow 04:50:41 - 199° (SSW) 2,903 8.5 -9.8°
